Flag for Comoros Weather past 2 weeks in Mutsamudu, Comoros

Now
79 °F

Partly cloudy.


Feels Like: 82 °F
Forecast: 79 / 81 °F
Wind: 1 mph from North

Location: Dzaoudzi / Pamanzi Mayotte

Current Time: Mar 1, 2015 at 3:15:37 AM

Latest Report: Mar 1, 2015 at 3:00 AM


Visibility: N/A

Pressure: 29.71 "Hg

Humidity: 84%

Dew point: 73 °F

Location of MutsamuduLocation

Historic Weather in Mutsamudu — Graph

°F

Mutsamudu temperature yesterday

Maximum temperature yesterday: 86 °F (at 9:00 AM)
Minimum temperature yesterday: 77 °F (at 10:00 AM)
Average temperature yesterday: 80 °F

Past Weeks' High & Low Weather Summary

 TemperatureHumidityPressure
High90 °F (Feb 20, 10:30 AM)100% (Feb 16, 9:30 AM)29.95 "Hg (Feb 16, 9:30 AM)
Low75 °F (Feb 26, 10:30 AM)66% (Feb 14, 1:30 PM)29.71 "Hg (Feb 25, 4:00 PM)
Average82 °F83%29.82 "Hg
* Reported Feb 14 2:00 AM — Mar 1 2:00 AM, Mutsamudu, Weather by CustomWeather, © 2015

Note: Actual official high and low records may vary slightly from our data, if they occured in-between our weather recording intervals... More about our weather records

Advertising

Mutsamudu weather history for previous 24 hours

 ConditionsComfort  
Time TempWeatherWind HumidityBarometerVisibility
2:00 AM
Sun, Mar 1
81 °FPartly cloudy.9 mph84%29.71 "HgN/A
1:30 AM81 °FWarm.10 mph84%29.74 "HgN/A
1:00 AM81 °FWarm.9 mph84%29.74 "HgN/A
12:30 AM81 °FWarm.12 mph84%29.74 "HgN/A
12:00 AM81 °FOvercast.9 mph84%29.74 "HgN/A
11:30 PM
Sat, Feb 28
81 °FWarm.10 mph84%29.74 "HgN/A
11:00 PM79 °FPartly cloudy.2 mph89%29.77 "HgN/A
10:30 PM79 °FPartly cloudy.6 mph89%29.80 "HgN/A
10:00 PM81 °FPartly cloudy.10 mph84%29.80 "HgN/A
9:30 PM82 °FOvercast.8 mph79%29.77 "HgN/A
9:00 PM81 °FPartly cloudy.9 mph79%29.80 "HgN/A
8:30 PM81 °FMostly cloudy.7 mph84%29.77 "HgN/A
8:00 PM81 °FPassing clouds.5 mph79%29.77 "HgN/A
7:30 PM81 °FPartly cloudy.7 mph79%29.77 "HgN/A
7:00 PM81 °FWarm.7 mph84%29.74 "HgN/A
6:30 PM81 °FWarm.9 mph79%29.74 "HgN/A
6:00 PM81 °FBroken clouds.10 mph79%29.74 "HgN/A
5:30 PM81 °FBroken clouds.7 mph74%29.71 "HgN/A
5:00 PM81 °FBroken clouds.12 mph74%29.71 "HgN/A
4:30 PM81 °FBroken clouds.8 mph79%29.71 "HgN/A
4:00 PM81 °FBroken clouds.10 mph84%29.71 "HgN/A
3:30 PM81 °FBroken clouds.14 mph79%29.71 "HgN/A
3:00 PM81 °FBroken clouds.12 mph79%29.71 "HgN/A
2:30 PM81 °FBroken clouds.15 mph79%29.74 "HgN/A
2:00 PM81 °FWarm.9 mph84%29.74 "HgN/A
1:36 PM81 °FBroken clouds.12 mph84%29.74 "HgN/A
1:00 PM81 °FSprinkles. Broken clouds.9 mph89%29.74 "HgN/A
12:30 PM81 °FSprinkles. Broken clouds.6 mph89%29.77 "HgN/A
12:00 PM81 °FScattered showers. Broken clouds.6 mph84%29.77 "HgN/A
11:30 AM79 °FSprinkles. Broken clouds.5 mph89%29.77 "Hg2 mi
11:00 AM79 °FSprinkles. Partly sunny.6 mph89%29.80 "Hg2 mi
10:30 AM77 °FThunderstorms. Partly sunny.7 mph94%29.80 "Hg2 mi
10:00 AM77 °FThunderstorms. Partly sunny.10 mph94%29.83 "Hg2 mi
9:30 AM79 °FRain showers. Partly sunny.22 mph89%29.80 "HgN/A
9:00 AM86 °FSprinkles. Partly sunny.No wind79%29.80 "HgN/A
8:00 AM84 °FPassing clouds.1 mph84%29.80 "HgN/A
7:30 AM82 °FPassing clouds.2 mph89%29.77 "HgN/A
7:00 AM81 °FPassing clouds.No wind94%29.77 "HgN/A
6:30 AM79 °FPassing clouds.No wind94%29.77 "HgN/A
6:00 AM79 °FScattered clouds.No wind94%29.74 "HgN/A
5:30 AM79 °FPassing clouds.2 mph94%29.74 "HgN/A
5:00 AM79 °FWarm.No wind89%29.74 "HgN/A
4:30 AM79 °FWarm.3 mph94%29.74 "HgN/A
4:00 AM79 °FWarm.5 mph89%29.74 "HgN/A
3:30 AM79 °FWarm.5 mph89%29.74 "HgN/A
3:00 AM79 °FPassing clouds.2 mph89%29.74 "HgN/A
Weather by CustomWeather, © 2015

See weather overviewHow to use our weather pages